Regional Weather Roundup
Issued by NWS Cleveland, OH

Current Version | Previous Version | Text Only | Print | Product List | Glossary On
Versions: 1 2 3 4 5 6 7 8 9 10 11 12 13 14 15 16 17 18 19 20 21 22 23 24 25 26 27 28 29 30 31 32 33 34 35 36 37 38 39 40 41 42 43 44 45 46 47 48 49 50
000 ASUS41 KCLE 252112 RWRCLE OHIO REGIONAL WEATHER ROUNDUP NATIONAL WEATHER SERVICE WILMINGTON, OH 500 PM EDT SAT JUN 25 2016 NOTE: "FAIR" INDICATES FEW OR NO CLOUDS BELOW 12,000 FEET WITH NO SIGNIFICANT WEATHER AND/OR OBSTRUCTIONS TO VISIBILITY. OHZ001>008-015>018-024>027-034-035-043-044-252200- NORTHWEST OHIO CITY SKY/WX TMP DP RH WIND PRES REMARKS DEFIANCE FAIR 85 54 34 SE6 30.12F FINDLAY FAIR 85 46 25 VRB3 30.12F TOLEDO EXPRESS FAIR 86 50 28 CALM 30.12S TOLEDO EXEC FAIR 84 51 31 NE6 30.13F LIMA FAIR 84 55 36 SE3 30.14S $$ OHZ009>014-019>023-028>033-038-089-252200- NORTHEAST OHIO CITY SKY/WX TMP DP RH WIND PRES REMARKS CLE-HOPKINS FAIR 83 60 45 N10 30.16S CLE-LAKEFRONT FAIR 78 64 61 NE12 30.13S CUY CO. ARPT MOSUNNY 88 63 42 NE10 30.15 LORAIN-ELYRIA FAIR 82 61 48 N10 30.14S ASHTABULA FAIR 83 57 41 E7 30.15F AKRON-CANTON FAIR 86 57 37 NE5 30.14F WOOSTER FAIR 85 58 39 SW6 30.15S MANSFIELD FAIR 85 54 34 VRB6 30.15F YOUNGSTOWN FAIR 85 60 42 SE6 30.14F $$ OHZ042-051>053-060>062-070>072-077>081-252200- SOUTHWEST OHIO CITY SKY/WX TMP DP RH WIND PRES REMARKS CINC-COVINGTON PTSUNNY 87 64 46 S7 30.11F CINC-LUNKEN FAIR 87 65 47 SW5 30.10F HAMILTON FAIR 89 58 34 CALM 30.11F DAYTON FAIR 88 57 34 N5 30.14S WRIGHT-PAT AFB FAIR 87 56 34 NW6 30.12S DAYTON GENERAL FAIR 86 56 35 S7 30.12F WILMINGTON FAIR 85 63 47 VRB3 30.13S $$ OHZ036-037-039>041-045>050-054>059-063>069-073>076-082>088-252200- CENTRAL AND SOUTHEAST OHIO CITY SKY/WX TMP DP RH WIND PRES REMARKS COLUMBUS FAIR 87 53 31 CALM 30.11F OSU AIRPORT FAIR 88 56 33 VRB3 30.12F BOLTON FIELD SUNNY 86 59 39 NW3 30.13F RICKENBACK AFB FAIR 86 60 41 SW7 30.11F NEWARK FAIR 87 57 35 W3 30.12F MARION FAIR 85 48 27 VRB3 30.14F LANCASTER FAIR 86 61 42 W5 30.13F ZANESVILLE FAIR 90 60 36 S3 30.13F NEW PHILLY FAIR 90 57 32 VRB5 30.13F $$

USA.gov is the U.S. government's official web portal to all federal, state and local government web resources and services.